Weather History for HELX - October, 2012

Change the Weather History Date:

Wednesday, October 10, 2012

  Actual Average Record
Temperature  
Mean Temperature 80 °F -  
Max Temperature 95 °F 88 °F 102 °F (2010)
Min Temperature 66 °F 61 °F 64 °F (2000)
Cooling Degree Days 16    
Growing Degree Days 30 (Base 50)    
Moisture  
Dew Point 56 °F    
Average Humidity 41    
Maximum Humidity 57    
Minimum Humidity 21    
Precipitation  
Precipitation 0.00 in 0.00 in - ()
Sea Level Pressure  
Sea Level Pressure 29.82 in    
Wind  
Wind Speed 1 mph ()    
Max Wind Speed 5 mph    
Max Gust Speed -    
Visibility 6.0 miles    
Events      
Averages and records for this station are not official NWS values.
T = Trace of Precipitation, MM = Missing Value Source: Averaged Metar Reports

Daily Weather History Graph

Daily Weather History Graph

Search for Another Location

Airport or City:

Trip Planner

Search our weather history database for the weather conditions in past years. The results will help you decide how hot, cold, wet, or windy it might be!

Date:

Astronomy

Oct. 10, 2012 Rise Set
Actual Time 5:45 AM EET 5:26 PM EET
Civil Twilight 5:22 AM EET 5:49 PM EET
Nautical Twilight 4:55 AM EET 6:16 PM EET
Astronomical Twilight 4:29 AM EET 6:42 PM EET
Moon 12:32 AM EET (10/10) 1:49 PM EET (10/10)
Length of Visible Light 12h 26m
Length of Day
11h 40m
Waning Crescent, 30% of the Moon is Illuminated
Oct 10
Waning Crescent
Oct 15
New
Oct 22
First Quarter
Oct 29
Full
Nov 7
Last Quarter

Hourly Weather History & Observations

Time (EET) Temp. Heat Index Dew Point Humidity Pressure Visibility Wind Dir Wind Speed Gust Speed Precip Events Conditions
12:00 AM 77.0 °F - 55.4 °F 47% 29.83 in - SSE 2.3 mph - N/A   Clear
1:00 AM 75.2 °F - 55.4 °F 50% 29.83 in - Calm Calm - N/A   Clear
2:00 AM 74 °F - 57 °F 44% 29.82 in 6 mi South 1.2 mph - -  
2:00 AM 73.4 °F - 57.2 °F 57% 29.83 in - South 1.2 mph - N/A   Clear
3:00 AM 73.4 °F - 55.4 °F 53% 29.83 in - SE 4.6 mph - N/A   Clear
4:00 AM 75.2 °F - 55.4 °F 50% 29.83 in - SE 1.2 mph - N/A   Clear
5:00 AM 71.6 °F - 53.6 °F 53% 29.83 in - Calm Calm - N/A   Clear
6:00 AM 68.0 °F - 51.8 °F 56% 29.83 in - Calm Calm - N/A   Clear
7:00 AM 71.6 °F - 53.6 °F 53% 29.86 in - Calm Calm - N/A   Clear
8:00 AM 77 °F - 55 °F 36% 29.87 in 6 mi Calm Calm - -   Clear
8:00 AM 77.0 °F - 55.4 °F 47% 29.86 in - Calm Calm - N/A   Clear
9:00 AM 82.4 °F 82.0 °F 57.2 °F 42% 29.89 in - Calm Calm - N/A   Clear
10:00 AM 84.2 °F 83.5 °F 57.2 °F 40% 29.86 in - Calm Calm - N/A   Clear
11:00 AM 87.8 °F 86.5 °F 57.2 °F 35% 29.86 in - North 2.3 mph - N/A   Clear
12:00 PM 89.6 °F 88.1 °F 57.2 °F 33% 29.83 in - NNE 3.5 mph - N/A   Clear
1:00 PM 93.2 °F 91.9 °F 57.2 °F 30% 29.80 in - NW 2.3 mph - N/A   Clear
2:00 PM 93 °F - 57 °F 21% 29.78 in 6 mi SW 3.5 mph - -  
2:00 PM 93.2 °F 91.9 °F 57.2 °F 30% 29.77 in - SW 3.5 mph - N/A   Clear
3:00 PM 93.2 °F 91.9 °F 57.2 °F 30% 29.77 in - West 3.5 mph - N/A   Clear
4:00 PM 93.2 °F 91.9 °F 57.2 °F 30% 29.77 in - WNW 2.3 mph - N/A   Clear
5:00 PM 91.4 °F 89.9 °F 57.2 °F 31% 29.77 in - Calm Calm - N/A   Clear
6:00 PM 87.8 °F 87.1 °F 59.0 °F 38% 29.80 in - Calm Calm - N/A   Clear
7:00 PM 82.4 °F 82.5 °F 59.0 °F 45% 29.80 in - Calm Calm - N/A   Clear
8:00 PM 83 °F - 54 °F 26% 29.81 in 6 mi Calm Calm - -  
8:00 PM 82.4 °F 81.4 °F 53.6 °F 37% 29.83 in - Calm Calm - N/A   Clear
9:00 PM 80.6 °F 80.3 °F 53.6 °F 39% 29.83 in - Calm Calm - N/A   Clear
10:00 PM 78.8 °F - 50.0 °F 36% 29.83 in - SSE 4.6 mph - N/A   Clear
11:00 PM 75.2 °F - 53.6 °F 47% 29.83 in - SW 3.5 mph - N/A   Clear